Regional Weather Roundup
Issued by NWS

Home | Current Version | Previous Version | Graphics & Text | Print | Product List | Glossary On
Versions: 1 2 3 4 5 6 7 8 9 10 11 12 13 14 15 16 17 18 19 20 21 22 23 24 25 26 27 28 29 30 31 32 33 34 35 36 37 38 39 40 41 42 43 44 45 46 47 48 49 50
605
ASUS44 KLIX 010901
RWRLA
LOUISIANA WEATHER ROUNDUP
NATIONAL WEATHER SERVICE NEW ORLEANS LA
400 AM CDT SAT NOV 01 2014

NOTE: "FAIR" INDICATES FEW OR NO CLOUDS BELOW 12,000 FEET WITH NO
      SIGNIFICANT WEATHER AND/OR OBSTRUCTIONS TO VISIBILITY.
      SKY/WX - SKY CONDITION AND SIGNIFICANT WEATHER.
      TMP - AIR TEMPERATURE.    DP   - DEWPOINT TEMPERATURE.
      RH  - RELATIVE HUMIDITY.  PRES - PRESSURE.
      HX  - HEAT INDEX.         WCI  - WIND CHILL INDEX.

*  THESE STATIONS ARE NOT NWS OR FAA STATIONS AND ARE NOT UNDER
   NWS QUALITY CONTROL.

LAZ040-048-061>063-065-066-069-011000-
SOUTHEAST LOUISIANA

CITY           SKY/WX    TMP DP  RH WIND       PRES   REMARKS
N.O. AUDUBON     N/A     52  37  56 MISG        N/A
N.O. INTL ARPT CLEAR     51  25  36 N22G36    30.22S
N.O. LAKEFRONT CLEAR     52  34  50 N25G35    30.23S
N.O. DOWNTOWN* FAIR      52  30  43 N15G21    30.22S
SLIDELL        CLEAR     45  25  45 N10       30.24R
BATON ROUGE    CLEAR     47  27  45 NE13G22   30.27R
BOOTHVILLE     CLEAR     55  40  56 N16G30    30.17S
BELLE CHASSE   CLEAR     51  30  44 N13G25    30.20R
BOGALUSA*        N/A     44  24  45 N9        30.28R
NEW ROADS*     FAIR      45  31  57 NE13      30.28S
GONZALES*      FAIR      49  33  53 N10G17    30.24R
HAMMOND*       NOT AVBL
HOUMA*         CLEAR     50  39  64 N16G24    30.21R
PORT FOURCHON* NOT AVBL

$$

LAZ041-044-053-054-011000-
SOUTHWEST LOUISIANA

CITY           SKY/WX    TMP DP  RH WIND       PRES   REMARKS
LAKE CHARLES   CLEAR     50  41  71 NE12      30.28R
LAFAYETTE      CLEAR     49  36  61 NE14      30.26R
PATTERSON      CLEAR     52  37  58 N18G24    30.25R
SALT POINT       N/A     53  39  59 VRB7      30.22R
NEW IBERIA     CLEAR     51  40  65 NE17      30.25S
CHENAULT AIRPK CLEAR     49  41  72 N6        30.28R

$$

LAZ027-028-011000-
CENTRAL LOUISIANA

CITY           SKY/WX    TMP DP  RH WIND       PRES   REMARKS
FORT POLK      CLEAR     46  33  61 NE9       30.29R
ALEXANDRIA INT CLEAR     44  32  62 N5        30.31R
ALEXANDRIA     CLEAR     44  28  53 VRB5      30.32R

$$

LAZ001-002-011000-
NORTHWEST LOUISIANA

CITY           SKY/WX    TMP DP  RH WIND       PRES   REMARKS
SHREVEPORT     CLEAR     44  27  51 NE10      30.36S
BARKSDALE AFB  CLEAR     40  28  60 N5        30.37R
DTN SHREVEPORT CLEAR     42  28  57 NE6       30.37S

$$

LAZ014-016-011000-
NORTHEAST LOUISIANA

CITY           SKY/WX    TMP DP  RH WIND       PRES   REMARKS
MONROE         CLEAR     40  29  64 N9        30.36S WCI  34
TALLULAH       CLEAR     39  27  62 N9        30.34R WCI  33

$$




USA.gov is the U.S. government's official web portal to all federal, state and local government web resources and services.